Time,TemperatureF,DewpointF,PressureIn,WindDirection,WindDirectionDegrees,WindSpeedMPH,WindSpeedGustMPH,Humidity,HourlyPrecipIn,Conditions,Clouds,dailyrainin,SoftwareType,DateUTC
2014-01-28 00:01:00,12.1,1.0,30.18,WSW,246,2.0,-999.0,62,-99.99,,,0.00,weatherlink.com 1.10,2014-01-28 05:01:00,
2014-01-28 00:16:00,11.6,-2.0,30.18,SW,234,5.0,-999.0,55,-99.99,,,0.00,weatherlink.com 1.10,2014-01-28 05:16:00,
2014-01-28 00:31:00,11.6,-3.0,30.19,SW,225,3.0,-999.0,52,-99.99,,,0.00,weatherlink.com 1.10,2014-01-28 05:31:00,
2014-01-28 00:47:00,11.2,-4.0,30.18,WSW,240,4.0,-999.0,50,-99.99,,,0.00,weatherlink.com 1.10,2014-01-28 05:47:00,
2014-01-28 01:02:00,10.9,-4.0,30.19,SSW,209,3.0,-999.0,51,-99.99,,,0.00,weatherlink.com 1.10,2014-01-28 06:02:00,
2014-01-28 01:17:00,10.6,-4.0,30.20,West,267,4.0,-999.0,51,-99.99,,,0.00,weatherlink.com 1.10,2014-01-28 06:17:00,
2014-01-28 01:32:00,10.3,-4.0,30.20,SW,234,2.0,-999.0,52,-99.99,,,0.00,weatherlink.com 1.10,2014-01-28 06:32:00,
2014-01-28 01:47:00,9.9,-4.0,30.21,NW,313,3.0,-999.0,53,-99.99,,,0.00,weatherlink.com 1.10,2014-01-28 06:47:00,
2014-01-28 02:02:00,9.5,-5.0,30.22,WSW,248,3.0,-999.0,53,-99.99,,,0.00,weatherlink.com 1.10,2014-01-28 07:02:00,
2014-01-28 02:17:00,9.1,-5.0,30.24,WSW,242,6.0,-999.0,54,-99.99,,,0.00,weatherlink.com 1.10,2014-01-28 07:17:00,
2014-01-28 02:32:00,8.8,-4.0,30.25,WSW,240,5.0,-999.0,55,-99.99,,,0.00,weatherlink.com 1.10,2014-01-28 07:32:00,
2014-01-28 02:47:00,8.4,-4.0,30.26,West,261,2.0,-999.0,56,-99.99,,,0.00,weatherlink.com 1.10,2014-01-28 07:47:00,
2014-01-28 03:02:00,8.1,-4.0,30.27,WSW,246,4.0,-999.0,57,-99.99,,,0.00,weatherlink.com 1.10,2014-01-28 08:02:00,
2014-01-28 03:17:00,7.9,-4.0,30.27,West,277,3.0,-999.0,58,-99.99,,,0.00,weatherlink.com 1.10,2014-01-28 08:17:00,
2014-01-28 03:32:00,7.7,-4.0,30.28,WNW,284,3.0,-999.0,58,-99.99,,,0.00,weatherlink.com 1.10,2014-01-28 08:32:00,
2014-01-28 03:47:00,7.3,-4.0,30.28,SW,226,5.0,-999.0,59,-99.99,,,0.00,weatherlink.com 1.10,2014-01-28 08:47:00,
2014-01-28 04:02:00,7.1,-4.0,30.28,WSW,240,3.0,-999.0,60,-99.99,,,0.00,weatherlink.com 1.10,2014-01-28 09:02:00,
2014-01-28 04:18:00,6.7,-5.0,30.28,WSW,256,2.0,-999.0,60,-99.99,,,0.00,weatherlink.com 1.10,2014-01-28 09:18:00,
2014-01-28 04:33:00,6.4,-5.0,30.29,West,259,2.0,-999.0,61,-99.99,,,0.00,weatherlink.com 1.10,2014-01-28 09:33:00,
2014-01-28 04:48:00,6.0,-5.0,30.30,WSW,238,2.0,-999.0,62,-99.99,,,0.00,weatherlink.com 1.10,2014-01-28 09:48:00,
2014-01-28 05:03:00,5.7,-5.0,30.32,SW,220,4.0,-999.0,63,-99.99,,,0.00,weatherlink.com 1.10,2014-01-28 10:03:00,
2014-01-28 05:18:00,5.5,-5.0,30.32,WSW,247,3.0,-999.0,63,-99.99,,,0.00,weatherlink.com 1.10,2014-01-28 10:18:00,
2014-01-28 05:33:00,5.2,-5.0,30.33,WSW,240,0.0,-999.0,64,-99.99,,,0.00,weatherlink.com 1.10,2014-01-28 10:33:00,
2014-01-28 05:48:00,4.9,-5.0,30.34,SW,230,3.0,-999.0,64,-99.99,,,0.00,weatherlink.com 1.10,2014-01-28 10:48:00,
2014-01-28 06:03:00,4.6,-6.0,30.35,West,276,3.0,-999.0,63,-99.99,,,0.00,weatherlink.com 1.10,2014-01-28 11:03:00,
2014-01-28 06:18:00,4.4,-6.0,30.35,SW,221,5.0,-999.0,63,-99.99,,,0.00,weatherlink.com 1.10,2014-01-28 11:18:00,
2014-01-28 06:33:00,4.1,-6.0,30.36,WSW,240,2.0,-999.0,63,-99.99,,,0.00,weatherlink.com 1.10,2014-01-28 11:33:00,
2014-01-28 06:48:00,4.0,-6.0,30.37,WNW,283,2.0,-999.0,63,-99.99,,,0.00,weatherlink.com 1.10,2014-01-28 11:48:00,
2014-01-28 07:03:00,3.7,-6.0,30.38,West,275,1.0,-999.0,63,-99.99,,,0.00,weatherlink.com 1.10,2014-01-28 12:03:00,
2014-01-28 07:18:00,3.3,-6.0,30.38,WSW,243,1.0,-999.0,64,-99.99,,,0.00,weatherlink.com 1.10,2014-01-28 12:18:00,
2014-01-28 07:33:00,3.2,-7.0,30.39,WSW,254,5.0,-999.0,64,-99.99,,,0.00,weatherlink.com 1.10,2014-01-28 12:33:00,
2014-01-28 07:49:00,3.2,-7.0,30.40,West,266,1.0,-999.0,64,-99.99,,,0.00,weatherlink.com 1.10,2014-01-28 12:49:00,
2014-01-28 08:04:00,3.0,-7.0,30.40,West,263,2.0,-999.0,63,-99.99,,,0.00,weatherlink.com 1.10,2014-01-28 13:04:00,
2014-01-28 08:19:00,2.9,-7.0,30.41,SW,232,2.0,-999.0,64,-99.99,,,0.00,weatherlink.com 1.10,2014-01-28 13:19:00,
2014-01-28 08:34:00,2.8,-7.0,30.42,SSW,207,6.0,-999.0,64,-99.99,,,0.00,weatherlink.com 1.10,2014-01-28 13:34:00,
2014-01-28 08:49:00,2.8,-7.0,30.44,West,276,2.0,-999.0,64,-99.99,,,0.00,weatherlink.com 1.10,2014-01-28 13:49:00,
2014-01-28 09:04:00,3.0,-7.0,30.44,WSW,239,3.0,-999.0,64,-99.99,,,0.00,weatherlink.com 1.10,2014-01-28 14:04:00,
2014-01-28 09:19:00,3.8,-6.0,30.45,WSW,237,5.0,-999.0,64,-99.99,,,0.00,weatherlink.com 1.10,2014-01-28 14:19:00,
2014-01-28 09:34:00,4.0,-6.0,30.45,SSW,208,5.0,-999.0,63,-99.99,,,0.00,weatherlink.com 1.10,2014-01-28 14:34:00,
2014-01-28 09:49:00,5.0,-5.0,30.45,WNW,289,3.0,-999.0,64,-99.99,,,0.00,weatherlink.com 1.10,2014-01-28 14:49:00,
2014-01-28 10:04:00,5.5,-5.0,30.45,West,263,3.0,-999.0,62,-99.99,,,0.00,weatherlink.com 1.10,2014-01-28 15:04:00,
2014-01-28 10:19:00,6.2,-5.0,30.44,SSW,202,6.0,-999.0,60,-99.99,,,0.00,weatherlink.com 1.10,2014-01-28 15:19:00,
2014-01-28 10:34:00,6.5,-6.0,30.45,SW,226,0.0,-999.0,58,-99.99,,,0.00,weatherlink.com 1.10,2014-01-28 15:34:00,
2014-01-28 10:49:00,6.8,-6.0,30.45,West,273,1.0,-999.0,56,-99.99,,,0.00,weatherlink.com 1.10,2014-01-28 15:49:00,
2014-01-28 11:05:00,8.0,-5.0,30.45,NW,306,3.0,-999.0,55,-99.99,,,0.00,weatherlink.com 1.10,2014-01-28 16:05:00,
2014-01-28 11:20:00,8.6,-5.0,30.44,NNW,329,5.0,-999.0,54,-99.99,,,0.00,weatherlink.com 1.10,2014-01-28 16:20:00,
2014-01-28 11:35:00,9.1,-5.0,30.43,WNW,302,3.0,-999.0,53,-99.99,,,0.00,weatherlink.com 1.10,2014-01-28 16:35:00,
2014-01-28 11:50:00,8.8,-5.0,30.41,SW,217,3.0,-999.0,53,-99.99,,,0.00,weatherlink.com 1.10,2014-01-28 16:50:00,
2014-01-28 12:05:00,8.9,-5.0,30.41,WSW,238,3.0,-999.0,53,-99.99,,,0.00,weatherlink.com 1.10,2014-01-28 17:05:00,
2014-01-28 12:20:00,9.9,-4.0,30.39,NNW,346,3.0,-999.0,53,-99.99,,,0.00,weatherlink.com 1.10,2014-01-28 17:20:00,
2014-01-28 12:35:00,10.0,-5.0,30.38,WNW,302,4.0,-999.0,52,-99.99,,,0.00,weatherlink.com 1.10,2014-01-28 17:35:00,
2014-01-28 12:50:00,10.7,-4.0,30.38,SW,220,5.0,-999.0,52,-99.99,,,0.00,weatherlink.com 1.10,2014-01-28 17:50:00,
2014-01-28 13:05:00,11.1,-4.0,30.36,NW,304,4.0,-999.0,50,-99.99,,,0.00,weatherlink.com 1.10,2014-01-28 18:05:00,
2014-01-28 13:20:00,11.0,-5.0,30.35,WNW,284,2.0,-999.0,49,-99.99,,,0.00,weatherlink.com 1.10,2014-01-28 18:20:00,
2014-01-28 13:35:00,11.5,-4.0,30.36,West,266,0.0,-999.0,49,-99.99,,,0.00,weatherlink.com 1.10,2014-01-28 18:35:00,
2014-01-28 13:50:00,11.4,-5.0,30.36,SW,217,4.0,-999.0,48,-99.99,,,0.00,weatherlink.com 1.10,2014-01-28 18:50:00,
2014-01-28 14:05:00,11.5,-5.0,30.36,WNW,302,1.0,-999.0,48,-99.99,,,0.00,weatherlink.com 1.10,2014-01-28 19:05:00,
2014-01-28 14:20:00,11.8,-5.0,30.36,SW,214,3.0,-999.0,48,-99.99,,,0.00,weatherlink.com 1.10,2014-01-28 19:20:00,
2014-01-28 14:36:00,12.8,-4.0,30.35,SSW,202,4.0,-999.0,48,-99.99,,,0.00,weatherlink.com 1.10,2014-01-28 19:36:00,
2014-01-28 14:51:00,13.0,-4.0,30.35,SSW,209,4.0,-999.0,46,-99.99,,,0.00,weatherlink.com 1.10,2014-01-28 19:51:00,
2014-01-28 15:06:00,12.9,-4.0,30.35,WNW,299,3.0,-999.0,46,-99.99,,,0.00,weatherlink.com 1.10,2014-01-28 20:06:00,
2014-01-28 15:21:00,13.3,-4.0,30.35,West,272,0.0,-999.0,46,-99.99,,,0.00,weatherlink.com 1.10,2014-01-28 20:21:00,
2014-01-28 15:36:00,14.0,-4.0,30.35,SSW,213,1.0,-999.0,45,-99.99,,,0.00,weatherlink.com 1.10,2014-01-28 20:36:00,
2014-01-28 15:51:00,13.5,-4.0,30.35,SSW,205,1.0,-999.0,46,-99.99,,,0.00,weatherlink.com 1.10,2014-01-28 20:51:00,
2014-01-28 16:06:00,14.0,-3.0,30.36,South,175,2.0,-999.0,48,-99.99,,,0.00,weatherlink.com 1.10,2014-01-28 21:06:00,
2014-01-28 16:21:00,13.6,-4.0,30.36,SSW,213,0.0,-999.0,46,-99.99,,,0.00,weatherlink.com 1.10,2014-01-28 21:21:00,
2014-01-28 16:36:00,13.4,-3.0,30.35,SW,225,2.0,-999.0,48,-99.99,,,0.00,weatherlink.com 1.10,2014-01-28 21:36:00,
2014-01-28 16:51:00,12.9,-4.0,30.34,SW,225,2.0,-999.0,47,-99.99,,,0.00,weatherlink.com 1.10,2014-01-28 21:51:00,
2014-01-28 17:06:00,12.7,-4.0,30.34,SW,219,2.0,-999.0,47,-99.99,,,0.00,weatherlink.com 1.10,2014-01-28 22:06:00,
2014-01-28 17:21:00,12.4,-4.0,30.34,West,265,0.0,-999.0,48,-99.99,,,0.00,weatherlink.com 1.10,2014-01-28 22:21:00,
2014-01-28 17:36:00,12.3,-4.0,30.34,West,265,0.0,-999.0,48,-99.99,,,0.00,weatherlink.com 1.10,2014-01-28 22:36:00,
2014-01-28 17:52:00,12.2,-4.0,30.34,South,175,0.0,-999.0,49,-99.99,,,0.00,weatherlink.com 1.10,2014-01-28 22:52:00,
2014-01-28 18:07:00,12.3,-3.0,30.33,South,175,0.0,-999.0,51,-99.99,,,0.00,weatherlink.com 1.10,2014-01-28 23:07:00,
2014-01-28 18:22:00,12.3,-3.0,30.34,SSW,205,0.0,-999.0,50,-99.99,,,0.00,weatherlink.com 1.10,2014-01-28 23:22:00,
2014-01-28 18:37:00,12.3,-3.0,30.34,South,191,3.0,-999.0,50,-99.99,,,0.00,weatherlink.com 1.10,2014-01-28 23:37:00,
2014-01-28 18:52:00,12.3,-3.0,30.34,SSW,193,1.0,-999.0,50,-99.99,,,0.00,weatherlink.com 1.10,2014-01-28 23:52:00,
2014-01-28 19:07:00,12.2,-4.0,30.33,SSW,199,0.0,-999.0,49,-99.99,,,0.00,weatherlink.com 1.10,2014-01-29 00:07:00,
2014-01-28 19:22:00,12.1,-3.0,30.33,SSW,200,0.0,-999.0,50,-99.99,,,0.00,weatherlink.com 1.10,2014-01-29 00:22:00,
2014-01-28 19:37:00,12.2,-3.0,30.34,SW,221,1.0,-999.0,50,-99.99,,,0.00,weatherlink.com 1.10,2014-01-29 00:37:00,
2014-01-28 19:52:00,12.1,-3.0,30.32,SW,229,2.0,-999.0,52,-99.99,,,0.00,weatherlink.com 1.10,2014-01-29 00:52:00,
2014-01-28 20:07:00,11.9,-2.0,30.32,SSW,203,0.0,-999.0,53,-99.99,,,0.00,weatherlink.com 1.10,2014-01-29 01:07:00,
2014-01-28 20:22:00,11.8,-2.0,30.32,SW,227,4.0,-999.0,53,-99.99,,,0.00,weatherlink.com 1.10,2014-01-29 01:22:00,
2014-01-28 20:37:00,11.8,-2.0,30.32,SW,225,0.0,-999.0,53,-99.99,,,0.00,weatherlink.com 1.10,2014-01-29 01:37:00,
2014-01-28 20:52:00,11.7,-3.0,30.32,SW,219,2.0,-999.0,53,-99.99,,,0.00,weatherlink.com 1.10,2014-01-29 01:52:00,
2014-01-28 21:08:00,11.7,-2.0,30.31,SW,215,1.0,-999.0,55,-99.99,,,0.00,weatherlink.com 1.10,2014-01-29 02:08:00,
2014-01-28 21:23:00,11.6,-3.0,30.30,SW,223,2.0,-999.0,53,-99.99,,,0.00,weatherlink.com 1.10,2014-01-29 02:23:00,
2014-01-28 21:38:00,11.5,-3.0,30.30,WSW,258,3.0,-999.0,53,-99.99,,,0.00,weatherlink.com 1.10,2014-01-29 02:38:00,
2014-01-28 21:53:00,11.4,-3.0,30.29,WSW,245,1.0,-999.0,52,-99.99,,,0.00,weatherlink.com 1.10,2014-01-29 02:53:00,
2014-01-28 22:08:00,11.4,-3.0,30.29,WSW,238,1.0,-999.0,53,-99.99,,,0.00,weatherlink.com 1.10,2014-01-29 03:08:00,
2014-01-28 22:23:00,11.4,-3.0,30.29,WNW,300,4.0,-999.0,52,-99.99,,,0.00,weatherlink.com 1.10,2014-01-29 03:23:00,
2014-01-28 22:38:00,11.4,-3.0,30.29,West,279,1.0,-999.0,52,-99.99,,,0.00,weatherlink.com 1.10,2014-01-29 03:38:00,
2014-01-28 22:53:00,11.4,-3.0,30.29,SW,225,2.0,-999.0,52,-99.99,,,0.00,weatherlink.com 1.10,2014-01-29 03:53:00,
2014-01-28 23:08:00,11.4,-3.0,30.28,SW,217,0.0,-999.0,52,-99.99,,,0.00,weatherlink.com 1.10,2014-01-29 04:08:00,
2014-01-28 23:23:00,11.3,-3.0,30.28,SW,220,2.0,-999.0,53,-99.99,,,0.00,weatherlink.com 1.10,2014-01-29 04:23:00,
2014-01-28 23:38:00,11.2,-3.0,30.28,West,262,0.0,-999.0,54,-99.99,,,0.00,weatherlink.com 1.10,2014-01-29 04:38:00,
2014-01-28 23:53:00,11.0,-3.0,30.28,SW,234,1.0,-999.0,53,-99.99,,,0.00,weatherlink.com 1.10,2014-01-29 04:53:00,